Estherville, IA

12:18 PM CDT on September 26, 2017 (GMT -0500)
Estherville Municipal

Weather History for KEST - February, 2014

Change the Weather History Date:

Monday, February 3, 2014

  Actual Average Record
Temperature  
Mean Temperature 11 °F 17 °F  
Max Temperature 22 °F 26 °F 54 °F (2005)
Min Temperature -1 °F 8 °F -22 °F (1989)
Degree Days  
Heating Degree Days 54 48  
Month to date heating degree days 175 144  
Since 1 July heating degree days 5078 4815  
Cooling Degree Days 0 0  
Month to date cooling degree days 0 0  
Year to date cooling degree days 0 0  
Moisture  
Dew Point 6 °F    
Average Humidity 76    
Maximum Humidity 95    
Minimum Humidity 57    
Precipitation  
Precipitation 0.00 in 0.02 in 0.20 in (1983)
Month to date precipitation T 0.04  
Sea Level Pressure  
Sea Level Pressure 30.29 in    
Wind  
Wind Speed 8 mph (North)    
Max Wind Speed 15 mph    
Max Gust Speed 19 mph    
Visibility 10 miles    
Events      
T = Trace of Precipitation, MM = Missing Value Source: NWS Daily Summary

Daily Weather History Graph

Daily Weather History Graph

Search for Another Location

Airport or City:

Trip Planner

Search our weather history database for the weather conditions in past years. The results will help you decide how hot, cold, wet, or windy it might be!

Date:

Astronomy

Feb. 03, 2014 Rise Set
Actual Time 7:32 AM CST 5:33 PM CST
Civil Twilight 7:02 AM CST 6:03 PM CST
Nautical Twilight 6:28 AM CST 6:37 PM CST
Astronomical Twilight 5:55 AM CST 7:11 PM CST
Moon 9:26 AM CST (2/3) 10:34 PM CST (2/3)
Length of Visible Light 11h 01m
Length of Day
10h 00m
Waxing Crescent, 20% of the Moon is Illuminated
Feb 3
Waxing Crescent
Feb 6
First Quarter
Feb 14
Full
Feb 22
Last Quarter
Mar 1
New

Hourly Weather History & Observations

Time (CST) Temp. Windchill Dew Point Humidity Pressure Visibility Wind Dir Wind Speed Gust Speed Precip Events Conditions
12:52 AM 1.9 °F -14.7 °F -2.0 °F 83% 30.23 in 10.0 mi South 11.5 mph - N/A   Clear
1:52 AM 1.9 °F -14.7 °F -0.9 °F 88% 30.23 in 10.0 mi South 11.5 mph - N/A   Clear
2:52 AM 1.9 °F -12.9 °F -2.0 °F 83% 30.23 in 10.0 mi SSW 9.2 mph - N/A   Clear
3:52 AM 8.1 °F -5.3 °F 3.9 °F 83% 30.22 in 10.0 mi SSW 9.2 mph - N/A   Clear
4:52 AM 7.0 °F -6.6 °F 3.9 °F 87% 30.23 in 10.0 mi SW 9.2 mph - N/A   Clear
5:52 AM 6.1 °F -8.7 °F 3.0 °F 87% 30.24 in 10.0 mi SW 10.4 mph - N/A   Clear
6:52 AM 5.0 °F -2.1 °F 1.0 °F 84% 30.24 in 10.0 mi WSW 3.5 mph - N/A   Clear
7:52 AM 3.0 °F -9.3 °F 1.0 °F 91% 30.27 in 8.0 mi South 6.9 mph - N/A   Clear
8:52 AM 3.0 °F -6.4 °F 1.9 °F 95% 30.29 in 8.0 mi SW 4.6 mph - N/A   Clear
9:52 AM 10.0 °F 0.4 °F 6.1 °F 84% 30.30 in 9.0 mi West 5.8 mph - N/A   Clear
10:52 AM 14.0 °F 6.5 °F 8.1 °F 77% 30.30 in 10.0 mi NNW 4.6 mph - N/A   Clear
11:52 AM 21.0 °F 10.6 °F 9.0 °F 60% 30.30 in - North 9.2 mph - N/A   Unknown
12:52 PM 19.0 °F 10.0 °F 10.0 °F 68% 30.29 in 10.0 mi North 6.9 mph - N/A   Clear
1:52 PM 17.1 °F 6.6 °F 10.0 °F 74% 30.29 in 10.0 mi North 8.1 mph - N/A   Clear
2:52 PM 17.1 °F 4.3 °F 10.0 °F 74% 30.28 in 10.0 mi NNE 11.5 mph - N/A   Clear
3:52 PM 16.0 °F 5.3 °F 9.0 °F 74% 30.32 in 10.0 mi NNE 8.1 mph - N/A   Clear
4:52 PM 15.1 °F 4.2 °F 8.1 °F 74% 30.31 in 10.0 mi NE 8.1 mph - N/A   Clear
5:52 PM 12.0 °F 4.1 °F 7.0 °F 80% 30.31 in 10.0 mi ENE 4.6 mph - N/A   Clear
6:52 PM 10.9 °F 1.4 °F 7.0 °F 84% 30.33 in 10.0 mi NNE 5.8 mph - N/A   Overcast
7:52 PM 10.9 °F 0.2 °F 8.1 °F 88% 30.35 in 10.0 mi NNE 6.9 mph - N/A   Overcast
8:52 PM 10.9 °F -0.8 °F 8.1 °F 88% 30.35 in 10.0 mi NNE 8.1 mph - N/A   Overcast
9:52 PM 10.9 °F -0.8 °F 8.1 °F 88% 30.35 in 10.0 mi NNE 8.1 mph - N/A   Overcast
10:52 PM 10.9 °F 0.2 °F 8.1 °F 88% 30.38 in 10.0 mi NNE 6.9 mph - N/A   Overcast
11:08 PM 10.9 °F -0.8 °F 8.1 °F 88% 30.29 in 10.0 mi NNE 8.1 mph - N/A   Overcast
11:52 PM 10.9 °F -1.8 °F 7.0 °F 84% 30.38 in 10.0 mi NNE 9.2 mph - N/A   Overcast